TimeMDT,TemperatureF,Dew PointF,Humidity,Sea Level PressureIn,VisibilityMPH,Wind Direction,Wind SpeedMPH,Gust SpeedMPH,PrecipitationIn,Events,Conditions,WindDirDegrees,DateUTC
12:53 AM,57.9,46.0,65,30.01,10.0,SSW,5.8,-,N/A,,Clear,200,2013-09-04 06:53:00
1:53 AM,55.0,46.0,72,30.02,10.0,SSW,8.1,-,N/A,,Clear,210,2013-09-04 07:53:00
2:53 AM,54.0,46.0,75,30.02,10.0,SSW,4.6,-,N/A,,Mostly Cloudy,210,2013-09-04 08:53:00
3:53 AM,55.0,46.0,72,30.04,10.0,South,3.5,-,N/A,,Overcast,180,2013-09-04 09:53:00
4:53 AM,55.0,46.0,72,30.04,10.0,South,4.6,-,N/A,,Clear,190,2013-09-04 10:53:00
5:53 AM,55.0,46.9,74,30.06,10.0,Calm,Calm,-,N/A,,Clear,0,2013-09-04 11:53:00
6:53 AM,53.1,46.9,80,30.10,10.0,SW,4.6,-,N/A,,Clear,230,2013-09-04 12:53:00
7:53 AM,57.0,48.0,72,30.13,10.0,Calm,Calm,-,N/A,,Mostly Cloudy,0,2013-09-04 13:53:00
8:53 AM,61.0,48.0,62,30.11,10.0,South,3.5,-,N/A,,Mostly Cloudy,170,2013-09-04 14:53:00
9:53 AM,64.9,48.9,56,30.09,10.0,Calm,Calm,-,N/A,,Clear,0,2013-09-04 15:53:00
10:53 AM,70.0,48.0,46,30.09,10.0,Calm,Calm,-,N/A,,Clear,0,2013-09-04 16:53:00
11:53 AM,75.9,46.0,35,30.07,10.0,Variable,5.8,-,N/A,,Partly Cloudy,0,2013-09-04 17:53:00
12:53 PM,78.1,44.1,30,30.04,10.0,Calm,Calm,-,N/A,,Clear,0,2013-09-04 18:53:00
1:53 PM,81.0,44.1,27,30.01,10.0,NW,12.7,21.9,N/A,,Clear,310,2013-09-04 19:53:00
2:53 PM,82.0,44.1,26,29.98,10.0,SW,9.2,-,N/A,,Clear,220,2013-09-04 20:53:00
3:53 PM,79.0,45.0,30,29.99,10.0,Variable,4.6,-,N/A,,Mostly Cloudy,0,2013-09-04 21:53:00
4:04 PM,78.8,44.6,30,30.38,10.0,WSW,5.8,-,N/A,Thunderstorm,Thunderstorm,250,2013-09-04 22:04:00
4:32 PM,75.2,44.6,34,30.40,10.0,SE,12.7,25.3,N/A,,Mostly Cloudy,140,2013-09-04 22:32:00
4:53 PM,73.9,43.0,33,30.04,10.0,SSE,16.1,23.0,N/A,Thunderstorm,Thunderstorm,160,2013-09-04 22:53:00
5:53 PM,72.0,46.0,40,30.05,10.0,SSE,15.0,20.7,N/A,,Mostly Cloudy,150,2013-09-04 23:53:00
6:53 PM,69.1,46.9,45,30.07,10.0,SE,13.8,-,N/A,,Scattered Clouds,130,2013-09-05 00:53:00
7:53 PM,70.0,45.0,41,30.06,10.0,SE,12.7,21.9,N/A,,Clear,140,2013-09-05 01:53:00
8:53 PM,68.0,45.0,43,30.06,10.0,SE,12.7,-,N/A,,Mostly Cloudy,140,2013-09-05 02:53:00
9:53 PM,64.0,46.0,52,30.07,10.0,South,8.1,-,N/A,,Partly Cloudy,190,2013-09-05 03:53:00
10:53 PM,63.0,46.0,54,30.06,10.0,South,4.6,-,N/A,,Partly Cloudy,170,2013-09-05 04:53:00
11:53 PM,60.1,46.0,60,30.05,10.0,SW,6.9,-,N/A,,Clear,220,2013-09-05 05:53:00